Weather History for KSAN - November, 2013

Change the Weather History Date:

Wednesday, November 6, 2013

  Actual Average Record
Temperature  
Mean Temperature 65 °F 63 °F  
Max Temperature 77 °F 71 °F 90 °F (1949)
Min Temperature 53 °F 56 °F 46 °F (1935)
Degree Days  
Heating Degree Days 0 2  
Month to date heating degree days 8 12  
Since 1 July heating degree days 30 33  
Cooling Degree Days 0 1  
Month to date cooling degree days 5 6  
Year to date cooling degree days 743 713  
Growing Degree Days 15 (Base 50)    
Moisture  
Dew Point 28 °F    
Average Humidity 37    
Maximum Humidity 67    
Minimum Humidity 7    
Precipitation  
Precipitation 0.00 in 0.03 in 0.62 in (1905)
Month to date precipitation T 0.15  
Year to date precipitation 3.63 7.95  
Since 1 July precipitation 0.30 0.92  
Snow  
Snow 0.00 in - - ()
Month to date snowfall 0.0  
Year to date snowfall 0.0  
Since 1 July snowfall 0.0  
Snow Depth 0.00 in    
Sea Level Pressure  
Sea Level Pressure 30.14 in    
Wind  
Wind Speed 4 mph (NW)    
Max Wind Speed 15 mph    
Max Gust Speed 18 mph    
Visibility 10 miles    
Events      
T = Trace of Precipitation, MM = Missing Value Source: NWS Daily Summary

Daily Weather History Graph

Daily Weather History Graph

Search for Another Location

Airport or City:

Trip Planner

Search our weather history database for the weather conditions in past years. The results will help you decide how hot, cold, wet, or windy it might be!

Date:

Astronomy

Nov. 06, 2013 Rise Set
Actual Time 6:11 AM PST 4:53 PM PST
Civil Twilight 5:45 AM PST 5:19 PM PST
Nautical Twilight 5:15 AM PST 5:48 PM PST
Astronomical Twilight 4:46 AM PST 6:17 PM PST
Moon 9:25 AM PST (11/6) 8:06 PM PST (11/6)
Length of Visible Light 11h 33m
Length of Day
10h 42m
Waxing Crescent, 14% of the Moon is Illuminated
Nov 6
Waxing Crescent
Nov 9
First Quarter
Nov 17
Full
Nov 25
Last Quarter
Dec 2
New

Hourly Weather History & Observations

Time (PST) Temp. Dew Point Humidity Pressure Visibility Wind Dir Wind Speed Gust Speed Precip Events Conditions
12:51 AM 57.0 °F 41.0 °F 55% 30.14 in 10.0 mi Calm Calm - N/A   Clear
1:51 AM 57.9 °F 34.0 °F 41% 30.15 in 10.0 mi Calm Calm - N/A   Clear
2:51 AM 57.0 °F 32.0 °F 39% 30.15 in 10.0 mi Calm Calm - N/A   Clear
3:51 AM 53.1 °F 33.1 °F 47% 30.15 in 10.0 mi Calm Calm - N/A   Clear
4:51 AM 55.0 °F 28.0 °F 35% 30.15 in 10.0 mi NNW 3.5 mph - N/A   Clear
5:51 AM 53.1 °F 28.9 °F 40% 30.16 in 10.0 mi Calm Calm - N/A   Clear
6:51 AM 55.0 °F 28.9 °F 37% 30.17 in 10.0 mi Calm Calm - N/A   Clear
7:51 AM 62.1 °F 25.0 °F 24% 30.18 in 10.0 mi Calm Calm - N/A   Clear
8:51 AM 66.0 °F 30.0 °F 26% 30.20 in 10.0 mi Calm Calm - N/A   Clear
9:51 AM 73.9 °F 18.0 °F 12% 30.19 in 10.0 mi NW 3.5 mph - N/A   Partly Cloudy
10:51 AM 73.9 °F 19.9 °F 13% 30.18 in 10.0 mi NW 8.1 mph - N/A   Partly Cloudy
11:51 AM 73.0 °F 25.0 °F 17% 30.16 in 10.0 mi NW 11.5 mph - N/A   Partly Cloudy
12:51 PM 75.9 °F 6.1 °F 7% 30.13 in 10.0 mi NNW 15.0 mph - N/A   Partly Cloudy
1:51 PM 77.0 °F 30.0 °F 18% 30.12 in 10.0 mi NW 10.4 mph - N/A   Partly Cloudy
2:51 PM 75.0 °F 42.1 °F 31% 30.11 in 10.0 mi NW 8.1 mph - N/A   Scattered Clouds
3:51 PM 75.0 °F 34.0 °F 22% 30.11 in 10.0 mi NNW 10.4 mph - N/A   Scattered Clouds
4:51 PM 71.1 °F 37.0 °F 29% 30.11 in 10.0 mi North 10.4 mph - N/A   Scattered Clouds
5:51 PM 69.1 °F 30.9 °F 24% 30.13 in 10.0 mi West 4.6 mph - N/A   Scattered Clouds
6:51 PM 69.1 °F 19.9 °F 15% 30.14 in 10.0 mi WNW 4.6 mph - N/A   Scattered Clouds
7:51 PM 69.1 °F 16.0 °F 13% 30.14 in 10.0 mi Calm Calm - N/A   Scattered Clouds
8:51 PM 64.9 °F 21.0 °F 19% 30.13 in 10.0 mi North 3.5 mph - N/A   Partly Cloudy
9:51 PM 62.1 °F 24.1 °F 23% 30.13 in 10.0 mi Calm Calm - N/A   Scattered Clouds
10:51 PM 61.0 °F 27.0 °F 27% 30.11 in 10.0 mi Calm Calm - N/A   Partly Cloudy
11:51 PM 59.0 °F 30.0 °F 33% 30.10 in 10.0 mi North 3.5 mph - N/A   Partly Cloudy